| time (UTC) | temp F | wind direction | speed MPH | gust MPH | rain 1hr in | rain 24hr in | rain mn in | humidity % | barometer mb |
| 20260903121728 | 60 | 252 | 1.0 | 1.0 | 0.12 | 0.03 | 0.03 | 99 | 1014.7 |
| 20260903121225 | 60 | 252 | 1.0 | 1.0 | 0.12 | 0.03 | 0.03 | 99 | 1014.7 |
| 20260903120725 | 60 | 302 | 0.0 | 1.0 | 0.12 | 0.02 | 0.02 | 99 | 1014.7 |
| 20260903120218 | 60 | 300 | 0.0 | 0.0 | 0.00 | 0.00 | 0.00 | 99 | 1014.7 |
| 20260903115717 | 60 | 300 | 0.0 | 0.0 | 0.00 | 0.00 | 0.00 | 99 | 1014.7 |
| 20260903115213 | 60 | 300 | 0.0 | 0.0 | 0.00 | 0.00 | 0.00 | 99 | 1014.6 |
| 20260903114712 | 60 | 284 | 1.0 | 1.0 | 0.00 | 0.00 | 0.00 | 99 | 1014.8 |
| 20260903114209 | 60 | 302 | 0.0 | 0.0 | 0.00 | 0.00 | 0.00 | 99 | 1014.7 |
| 20260903113703 | 60 | 285 | 2.0 | 2.0 | 0.00 | 0.00 | 0.00 | 99 | 1014.6 |
| 20260903113159 | 60 | 295 | 0.0 | 0.0 | 0.00 | 0.00 | 0.00 | 99 | 1014.8 |
| 20260903112655 | 60 | 298 | 0.0 | 0.0 | 0.00 | 0.00 | 0.00 | 99 | 1014.9 |
| 20260903112150 | 60 | 296 | 0.0 | 0.0 | 0.00 | 0.00 | 0.00 | 99 | 1015.0 |
| 20260903111649 | 60 | 298 | 0.0 | 0.0 | 0.00 | 0.00 | 0.00 | 99 | 1014.9 |
| 20260903111145 | 60 | 299 | 0.0 | 0.0 | 0.00 | 0.00 | 0.00 | 99 | 1014.8 |
| 20260903110641 | 60 | 299 | 0.0 | 0.0 | 0.00 | 0.00 | 0.00 | 99 | 1015.1 |
| 20260903110136 | 60 | 300 | 0.0 | 0.0 | 0.00 | 0.00 | 0.00 | 99 | 1015.0 |
| 20260903105631 | 60 | 295 | 0.0 | 0.0 | 0.00 | 0.00 | 0.00 | 99 | 1015.0 |
| 20260903105126 | 60 | 289 | 0.0 | 1.0 | 0.00 | 0.00 | 0.00 | 99 | 1015.2 |
| 20260903104625 | 59 | 305 | 0.0 | 0.0 | 0.00 | 0.00 | 0.00 | 99 | 1015.1 |
| 20260903104121 | 59 | 306 | 0.0 | 0.0 | 0.00 | 0.00 | 0.00 | 99 | 1015.2 |
| 20260903103616 | 58 | 312 | 0.0 | 0.0 | 0.00 | 0.00 | 0.00 | 99 | 1015.1 |
| 20260903103113 | 58 | 312 | 0.0 | 0.0 | 0.00 | 0.00 | 0.00 | 99 | 1015.1 |
| 20260903102608 | 59 | 312 | 0.0 | 0.0 | 0.00 | 0.00 | 0.00 | 99 | 1015.1 |
| 20260903102107 | 59 | 296 | 0.0 | 0.0 | 0.00 | 0.00 | 0.00 | 99 | 1015.3 |
| 20260903101601 | 59 | 296 | 0.0 | 0.0 | 0.00 | 0.00 | 0.00 | 99 | 1015.1 |
| 20260903101057 | 59 | 296 | 0.0 | 0.0 | 0.00 | 0.00 | 0.00 | 99 | 1015.4 |
| 20260903100557 | 59 | 296 | 0.0 | 0.0 | 0.00 | 0.00 | 0.00 | 99 | 1015.3 |
| 20260903100055 | 59 | 295 | 0.0 | 0.0 | 0.00 | 0.00 | 0.00 | 99 | 1015.4 |
| 20260903095554 | 59 | 295 | 0.0 | 0.0 | 0.00 | 0.00 | 0.00 | 99 | 1015.3 |
| 20260903095048 | 59 | 297 | 0.0 | 0.0 | 0.00 | 0.00 | 0.00 | 99 | 1015.3 |
| 20260903094543 | 59 | 299 | 0.0 | 0.0 | 0.00 | 0.00 | 0.00 | 99 | 1015.3 |
| 20260903094038 | 59 | 301 | 0.0 | 0.0 | 0.00 | 0.00 | 0.00 | 99 | 1015.5 |
| 20260903093533 | 59 | 301 | 0.0 | 0.0 | 0.00 | 0.00 | 0.00 | 99 | 1015.4 |
| 20260903093029 | 59 | 313 | 0.0 | 0.0 | 0.00 | 0.00 | 0.00 | 99 | 1015.5 |
| 20260903092528 | 59 | 315 | 0.0 | 0.0 | 0.00 | 0.00 | 0.00 | 99 | 1015.5 |
| 20260903092022 | 59 | 306 | 0.0 | 0.0 | 0.00 | 0.00 | 0.00 | 99 | 1015.8 |
| 20260903091520 | 59 | 303 | 0.0 | 0.0 | 0.00 | 0.00 | 0.00 | 99 | 1015.9 |
| 20260903091015 | 59 | 302 | 0.0 | 0.0 | 0.00 | 0.00 | 0.00 | 99 | 1015.9 |
| 20260903090512 | 59 | 303 | 0.0 | 0.0 | 0.00 | 0.00 | 0.00 | 99 | 1015.9 |
| 20260903090010 | 59 | 303 | 0.0 | 0.0 | 0.00 | 0.00 | 0.00 | 99 | 1016.1 |
| 20260903085508 | 59 | 303 | 0.0 | 0.0 | 0.00 | 0.00 | 0.00 | 99 | 1016.0 |
| 20260903085004 | 59 | 303 | 0.0 | 0.0 | 0.00 | 0.00 | 0.00 | 99 | 1016.2 |
| 20260903084502 | 58 | 306 | 0.0 | 0.0 | 0.00 | 0.00 | 0.00 | 99 | 1016.0 |
| 20260903083957 | 58 | 306 | 0.0 | 0.0 | 0.00 | 0.00 | 0.00 | 99 | 1016.0 |
| 20260903083453 | 58 | 310 | 0.0 | 0.0 | 0.00 | 0.00 | 0.00 | 99 | 1016.0 |
| 20260903082953 | 57 | 310 | 0.0 | 0.0 | 0.00 | 0.00 | 0.00 | 99 | 1016.2 |
| 20260903082447 | 57 | 310 | 0.0 | 0.0 | 0.00 | 0.00 | 0.00 | 99 | 1016.2 |
| 20260903081942 | 57 | 310 | 0.0 | 0.0 | 0.00 | 0.00 | 0.00 | 99 | 1016.2 |
| 20260903081437 | 57 | 310 | 0.0 | 0.0 | 0.00 | 0.00 | 0.00 | 99 | 1016.2 |
| 20260903080933 | 57 | 310 | 0.0 | 0.0 | 0.00 | 0.00 | 0.00 | 99 | 1016.3 |
| 20260903080429 | 57 | 310 | 0.0 | 0.0 | 0.00 | 0.00 | 0.00 | 99 | 1016.3 |
| 20260903075925 | 57 | 310 | 0.0 | 0.0 | 0.00 | 0.00 | 0.00 | 99 | 1016.3 |
| 20260903075421 | 57 | 309 | 0.0 | 0.0 | 0.00 | 0.00 | 0.00 | 99 | 1016.0 |
| 20260903074915 | 57 | 310 | 0.0 | 0.0 | 0.00 | 0.00 | 0.00 | 99 | 1016.2 |
| 20260903074409 | 57 | 309 | 0.0 | 0.0 | 0.00 | 0.00 | 0.00 | 99 | 1016.3 |
| 20260903073904 | 57 | 309 | 0.0 | 0.0 | 0.00 | 0.00 | 0.00 | 99 | 1016.2 |
| 20260903073359 | 57 | 309 | 0.0 | 0.0 | 0.00 | 0.00 | 0.00 | 99 | 1016.3 |
| 20260903072855 | 58 | 309 | 0.0 | 0.0 | 0.00 | 0.00 | 0.00 | 99 | 1016.3 |
| 20260903072351 | 58 | 309 | 0.0 | 0.0 | 0.00 | 0.00 | 0.00 | 99 | 1016.4 |
| 20260903071848 | 58 | 307 | 0.0 | 0.0 | 0.00 | 0.00 | 0.00 | 99 | 1016.4 |
| 20260903071343 | 58 | 305 | 0.0 | 0.0 | 0.00 | 0.00 | 0.00 | 99 | 1016.3 |
| 20260903070839 | 58 | 303 | 0.0 | 0.0 | 0.00 | 0.00 | 0.00 | 99 | 1016.4 |
| 20260903070333 | 58 | 313 | 0.0 | 0.0 | 0.00 | 0.00 | 0.00 | 99 | 1016.5 |
| 20260903065828 | 58 | 304 | 0.0 | 0.0 | 0.00 | 0.05 | 0.05 | 99 | 1016.6 |
| 20260903065327 | 58 | 304 | 0.0 | 0.0 | 0.00 | 0.05 | 0.05 | 99 | 1016.5 |
| 20260903064826 | 58 | 304 | 0.0 | 0.0 | 0.00 | 0.05 | 0.05 | 99 | 1016.4 |
| 20260903064317 | 58 | 304 | 0.0 | 0.0 | 0.00 | 0.05 | 0.05 | 99 | 1016.4 |
| 20260903063812 | 58 | 304 | 0.0 | 0.0 | 0.00 | 0.05 | 0.05 | 99 | 1016.6 |
| 20260903063306 | 57 | 303 | 0.0 | 0.0 | 0.00 | 0.05 | 0.05 | 99 | 1016.6 |
| 20260903062757 | 57 | 304 | 0.0 | 0.0 | 0.00 | 0.05 | 0.05 | 99 | 1016.7 |
| 20260903062257 | 57 | 304 | 0.0 | 0.0 | 0.00 | 0.05 | 0.05 | 99 | 1016.8 |
| 20260903061753 | 57 | 304 | 0.0 | 0.0 | 0.00 | 0.05 | 0.05 | 99 | 1016.7 |
| 20260903061251 | 57 | 308 | 0.0 | 0.0 | 0.00 | 0.05 | 0.05 | 99 | 1016.8 |
| 20260903060747 | 56 | 308 | 0.0 | 0.0 | 0.00 | 0.05 | 0.05 | 99 | 1016.9 |
| 20260903060247 | 55 | 307 | 0.0 | 0.0 | 0.00 | 0.05 | 0.05 | 99 | 1016.8 |
| 20260903055739 | 55 | 307 | 0.0 | 0.0 | 0.00 | 0.05 | 0.05 | 99 | 1016.7 |
| 20260903055238 | 55 | 307 | 0.0 | 0.0 | 0.00 | 0.05 | 0.05 | 99 | 1016.5 |
| 20260903054733 | 55 | 307 | 0.0 | 0.0 | 0.00 | 0.05 | 0.05 | 99 | 1016.7 |
| 20260903054227 | 55 | 307 | 0.0 | 0.0 | 0.00 | 0.05 | 0.05 | 98 | 1016.6 |
| 20260903053724 | 55 | 307 | 0.0 | 0.0 | 0.00 | 0.05 | 0.05 | 98 | 1016.6 |
| 20260903053224 | 56 | 307 | 0.0 | 0.0 | 0.00 | 0.05 | 0.05 | 98 | 1017.0 |
| 20260903052720 | 56 | 307 | 0.0 | 0.0 | 0.00 | 0.05 | 0.05 | 98 | 1016.8 |
| 20260903052215 | 56 | 307 | 0.0 | 0.0 | 0.00 | 0.05 | 0.05 | 98 | 1016.8 |
| 20260903051710 | 57 | 307 | 0.0 | 0.0 | 0.00 | 0.05 | 0.05 | 98 | 1016.9 |
| 20260903051206 | 56 | 307 | 0.0 | 0.0 | 0.00 | 0.05 | 0.05 | 98 | 1016.9 |
| 20260903050701 | 56 | 307 | 0.0 | 0.0 | 0.00 | 0.05 | 0.05 | 98 | 1017.0 |
| 20260903050200 | 57 | 307 | 0.0 | 0.0 | 0.00 | 0.05 | 0.05 | 98 | 1017.0 |
| 20260903045655 | 57 | 307 | 0.0 | 0.0 | 0.00 | 0.05 | 0.05 | 98 | 1017.0 |
| 20260903045151 | 57 | 307 | 0.0 | 0.0 | 0.00 | 0.05 | 0.05 | 97 | 1017.0 |
| 20260903044647 | 57 | 307 | 0.0 | 0.0 | 0.00 | 0.05 | 0.05 | 97 | 1016.9 |
| 20260903044143 | 57 | 306 | 0.0 | 0.0 | 0.00 | 0.05 | 0.05 | 97 | 1016.9 |
| 20260903043640 | 57 | 306 | 0.0 | 0.0 | 0.00 | 0.05 | 0.05 | 97 | 1016.8 |
| 20260903043138 | 57 | 307 | 0.0 | 0.0 | 0.00 | 0.05 | 0.05 | 97 | 1017.1 |
| 20260903042638 | 57 | 312 | 0.0 | 0.0 | 0.00 | 0.05 | 0.05 | 97 | 1017.1 |
| 20260903042133 | 57 | 309 | 0.0 | 0.0 | 0.00 | 0.05 | 0.05 | 97 | 1017.1 |
| 20260903041630 | 57 | 308 | 0.0 | 0.0 | 0.00 | 0.05 | 0.05 | 97 | 1016.9 |
| 20260903041125 | 57 | 308 | 0.0 | 0.0 | 0.00 | 0.05 | 0.05 | 97 | 1017.0 |
| 20260903040624 | 57 | 305 | 0.0 | 0.0 | 0.00 | 0.05 | 0.05 | 97 | 1017.0 |
| 20260903040121 | 57 | 309 | 0.0 | 0.0 | 0.00 | 0.05 | 0.05 | 97 | 1016.9 |
| 20260903035616 | 57 | 308 | 0.0 | 0.0 | 0.00 | 0.05 | 0.05 | 96 | 1016.9 |
| 20260903035112 | 57 | 312 | 0.0 | 0.0 | 0.00 | 0.05 | 0.05 | 96 | 1016.8 |
| 20260903034606 | 57 | 312 | 0.0 | 0.0 | 0.00 | 0.05 | 0.05 | 96 | 1016.7 |
| 20260903034101 | 57 | 312 | 0.0 | 0.0 | 0.00 | 0.05 | 0.05 | 96 | 1016.7 |
| 20260903033557 | 57 | 312 | 0.0 | 0.0 | 0.00 | 0.05 | 0.05 | 95 | 1016.5 |
| 20260903033052 | 57 | 313 | 0.0 | 1.0 | 0.00 | 0.05 | 0.05 | 95 | 1016.6 |
| 20260903032547 | 58 | 315 | 0.0 | 0.0 | 0.00 | 0.05 | 0.05 | 95 | 1016.7 |
| 20260903032042 | 58 | 314 | 0.0 | 0.0 | 0.00 | 0.05 | 0.05 | 95 | 1016.5 |
| 20260903031542 | 58 | 315 | 0.0 | 0.0 | 0.00 | 0.05 | 0.05 | 94 | 1016.4 |
| 20260903031037 | 58 | 315 | 0.0 | 0.0 | 0.00 | 0.05 | 0.05 | 94 | 1016.3 |
| 20260903030532 | 58 | 314 | 0.0 | 0.0 | 0.00 | 0.05 | 0.05 | 93 | 1016.4 |
| 20260903030029 | 59 | 312 | 0.0 | 0.0 | 0.00 | 0.05 | 0.05 | 93 | 1016.3 |
| 20260903025524 | 59 | 261 | 3.0 | 3.0 | 0.00 | 0.05 | 0.05 | 93 | 1016.3 |
| 20260903025020 | 59 | 292 | 0.0 | 0.0 | 0.00 | 0.05 | 0.05 | 93 | 1016.5 |
| 20260903024519 | 59 | 327 | 0.0 | 0.0 | 0.00 | 0.05 | 0.05 | 92 | 1016.5 |
| 20260903024013 | 59 | 314 | 0.0 | 0.0 | 0.00 | 0.05 | 0.05 | 92 | 1016.5 |
| 20260903023509 | 59 | 292 | 0.0 | 0.0 | 0.00 | 0.05 | 0.05 | 92 | 1016.6 |
| 20260903023004 | 59 | 320 | 0.0 | 0.0 | 0.00 | 0.05 | 0.05 | 91 | 1016.6 |
| 20260903022503 | 59 | 316 | 0.0 | 0.0 | 0.00 | 0.05 | 0.05 | 91 | 1016.6 |
| 20260903022001 | 60 | 311 | 0.0 | 0.0 | 0.00 | 0.05 | 0.05 | 90 | 1016.6 |
| 20260903021457 | 60 | 226 | 1.0 | 1.0 | 0.00 | 0.05 | 0.05 | 90 | 1016.6 |
| 20260903020952 | 60 | 285 | 0.0 | 1.0 | 0.00 | 0.05 | 0.05 | 89 | 1016.6 |
| 20260903020448 | 60 | 290 | 3.0 | 3.0 | 0.00 | 0.05 | 0.05 | 89 | 1016.5 |
| 20260903015942 | 60 | 258 | 2.0 | 2.0 | 0.00 | 0.05 | 0.05 | 89 | 1016.7 |
| 20260903015438 | 60 | 302 | 1.0 | 2.0 | 0.00 | 0.05 | 0.05 | 88 | 1016.6 |
| 20260903014933 | 61 | 302 | 1.0 | 1.0 | 0.00 | 0.05 | 0.05 | 88 | 1016.7 |
| 20260903014432 | 61 | 319 | 0.0 | 0.0 | 0.00 | 0.05 | 0.05 | 88 | 1016.8 |
| 20260903013927 | 61 | 321 | 0.0 | 1.0 | 0.00 | 0.05 | 0.05 | 87 | 1016.6 |
| 20260903013427 | 61 | 242 | 3.0 | 3.0 | 0.00 | 0.05 | 0.05 | 87 | 1016.7 |
| 20260903012926 | 62 | 230 | 4.0 | 6.0 | 0.00 | 0.05 | 0.05 | 86 | 1016.8 |
| 20260903012421 | 62 | 212 | 1.0 | 1.0 | 0.00 | 0.05 | 0.05 | 86 | 1016.8 |
| 20260903011919 | 62 | 322 | 1.0 | 2.0 | 0.00 | 0.05 | 0.05 | 85 | 1016.7 |
| 20260903011414 | 62 | 274 | 2.0 | 3.0 | 0.00 | 0.05 | 0.05 | 85 | 1016.8 |
| 20260903010909 | 63 | 239 | 0.0 | 0.0 | 0.00 | 0.05 | 0.05 | 84 | 1016.7 |
| 20260903010405 | 63 | 104 | 3.0 | 3.0 | 0.00 | 0.05 | 0.05 | 83 | 1016.8 |
| 20260903005902 | 64 | 188 | 4.0 | 6.0 | 0.00 | 0.05 | 0.05 | 81 | 1016.9 |
| 20260903005358 | 64 | 240 | 3.0 | 3.0 | 0.00 | 0.05 | 0.05 | 81 | 1016.9 |
| 20260903004854 | 64 | 232 | 3.0 | 3.0 | 0.00 | 0.05 | 0.05 | 81 | 1017.0 |
| 20260903004350 | 64 | 287 | 0.0 | 1.0 | 0.00 | 0.05 | 0.05 | 81 | 1016.6 |
| 20260903003844 | 64 | 246 | 4.0 | 5.0 | 0.00 | 0.05 | 0.05 | 80 | 1016.8 |
| 20260903003339 | 65 | 266 | 3.0 | 5.0 | 0.00 | 0.05 | 0.05 | 79 | 1016.7 |
| 20260903002838 | 65 | 224 | 5.0 | 7.0 | 0.00 | 0.05 | 0.05 | 77 | 1016.6 |
| 20260903002333 | 66 | 230 | 3.0 | 6.0 | 0.00 | 0.05 | 0.05 | 76 | 1016.7 |
| 20260903001828 | 66 | 240 | 2.0 | 2.0 | 0.00 | 0.05 | 0.05 | 77 | 1016.8 |
| 20260903001324 | 66 | 261 | 1.0 | 2.0 | 0.00 | 0.05 | 0.05 | 77 | 1016.8 |
| 20260903000823 | 66 | 234 | 3.0 | 6.0 | 0.00 | 0.05 | 0.05 | 77 | 1016.7 |
| 20260903000318 | 68 | 334 | 3.0 | 3.0 | 0.00 | 0.05 | 0.05 | 74 | 1016.8 |
| 20260902235815 | 67 | 275 | 2.0 | 2.0 | 0.00 | 0.05 | 0.05 | 75 | 1016.9 |
| 20260902235312 | 68 | 244 | 3.0 | 3.0 | 0.00 | 0.05 | 0.05 | 74 | 1017.0 |
| 20260902234806 | 67 | 303 | 2.0 | 2.0 | 0.00 | 0.05 | 0.05 | 74 | 1017.0 |
| 20260902234306 | 69 | 232 | 2.0 | 3.0 | 0.00 | 0.05 | 0.05 | 72 | 1016.8 |
| 20260902233805 | 70 | 327 | 1.0 | 1.0 | 0.00 | 0.05 | 0.05 | 71 | 1016.9 |
| 20260902233305 | 69 | 319 | 0.0 | 0.0 | 0.00 | 0.05 | 0.05 | 70 | 1016.9 |
| 20260902232803 | 69 | 231 | 3.0 | 5.0 | 0.00 | 0.05 | 0.05 | 71 | 1016.9 |
| 20260902232258 | 70 | 286 | 2.0 | 2.0 | 0.00 | 0.05 | 0.05 | 71 | 1017.0 |
| 20260902231757 | 69 | 327 | 1.0 | 2.0 | 0.00 | 0.05 | 0.05 | 71 | 1017.1 |
| 20260902231252 | 70 | 285 | 1.0 | 3.0 | 0.00 | 0.05 | 0.05 | 71 | 1017.1 |
| 20260902230747 | 70 | 265 | 3.0 | 5.0 | 0.00 | 0.05 | 0.05 | 69 | 1017.3 |
| 20260902230246 | 69 | 265 | 1.0 | 2.0 | 0.00 | 0.05 | 0.05 | 71 | 1017.3 |
| 20260902225741 | 68 | 273 | 1.0 | 1.0 | 0.00 | 0.05 | 0.05 | 74 | 1017.2 |
| 20260902225236 | 68 | 329 | 2.0 | 3.0 | 0.00 | 0.05 | 0.05 | 73 | 1017.2 |
| 20260902224735 | 68 | 318 | 4.0 | 6.0 | 0.00 | 0.05 | 0.05 | 74 | 1017.2 |
| 20260902224230 | 69 | 279 | 2.0 | 2.0 | 0.00 | 0.05 | 0.05 | 73 | 1017.4 |
| 20260902223726 | 69 | 315 | 1.0 | 1.0 | 0.00 | 0.05 | 0.05 | 75 | 1017.4 |
| 20260902223225 | 68 | 205 | 3.0 | 5.0 | 0.00 | 0.05 | 0.05 | 73 | 1017.4 |
| 20260902222724 | 70 | 264 | 2.0 | 6.0 | 0.00 | 0.05 | 0.05 | 71 | 1017.5 |
| 20260902222219 | 69 | 334 | 1.0 | 1.0 | 0.00 | 0.05 | 0.05 | 72 | 1017.3 |
| 20260902221714 | 70 | 297 | 3.0 | 5.0 | 0.00 | 0.05 | 0.05 | 71 | 1017.4 |
| 20260902221213 | 70 | 293 | 0.0 | 1.0 | 0.00 | 0.05 | 0.05 | 70 | 1017.2 |
| 20260902220708 | 69 | 308 | 3.0 | 5.0 | 0.00 | 0.05 | 0.05 | 73 | 1017.5 |
| 20260902220203 | 70 | 294 | 2.0 | 2.0 | 0.00 | 0.05 | 0.05 | 71 | 1017.3 |
| 20260902215659 | 71 | 349 | 1.0 | 1.0 | 0.00 | 0.05 | 0.05 | 71 | 1017.5 |
| 20260902215154 | 70 | 275 | 1.0 | 1.0 | 0.00 | 0.05 | 0.05 | 72 | 1017.3 |
| 20260902214649 | 69 | 306 | 1.0 | 2.0 | 0.00 | 0.05 | 0.05 | 75 | 1017.5 |
| 20260902214148 | 70 | 198 | 5.0 | 8.0 | 0.00 | 0.05 | 0.05 | 70 | 1017.6 |
| 20260902213643 | 69 | 303 | 4.0 | 6.0 | 0.00 | 0.05 | 0.05 | 70 | 1017.6 |
| 20260902213143 | 69 | 343 | 0.0 | 1.0 | 0.00 | 0.05 | 0.05 | 73 | 1017.7 |
| 20260902212638 | 69 | 240 | 1.0 | 1.0 | 0.00 | 0.05 | 0.05 | 72 | 1017.5 |
| 20260902212134 | 68 | 211 | 3.0 | 3.0 | 0.00 | 0.05 | 0.05 | 73 | 1017.5 |
| 20260902211631 | 69 | 271 | 2.0 | 2.0 | 0.00 | 0.05 | 0.05 | 75 | 1017.6 |
| 20260902211125 | 69 | 251 | 1.0 | 2.0 | 0.00 | 0.05 | 0.05 | 73 | 1017.8 |
| 20260902210625 | 69 | 267 | 3.0 | 5.0 | 0.00 | 0.05 | 0.05 | 74 | 1017.6 |
| 20260902210120 | 67 | 311 | 0.0 | 0.0 | 0.00 | 0.05 | 0.05 | 77 | 1017.5 |
| 20260902205619 | 67 | 287 | 2.0 | 2.0 | 0.00 | 0.05 | 0.05 | 76 | 1017.6 |
| 20260902205114 | 68 | 204 | 4.0 | 6.0 | 0.00 | 0.05 | 0.05 | 74 | 1017.7 |
| 20260902204608 | 68 | 341 | 1.0 | 2.0 | 0.00 | 0.05 | 0.05 | 76 | 1017.7 |
| 20260902204103 | 68 | 309 | 1.0 | 2.0 | 0.00 | 0.05 | 0.05 | 75 | 1017.7 |
| 20260902203559 | 68 | 331 | 1.0 | 2.0 | 0.00 | 0.05 | 0.05 | 73 | 1017.6 |
| 20260902203058 | 68 | 273 | 2.0 | 3.0 | 0.00 | 0.05 | 0.05 | 75 | 1017.8 |
| 20260902202554 | 68 | 282 | 1.0 | 1.0 | 0.00 | 0.05 | 0.05 | 76 | 1017.8 |
| 20260902202051 | 68 | 338 | 0.0 | 0.0 | 0.00 | 0.05 | 0.05 | 77 | 1017.8 |
| 20260902201546 | 68 | 214 | 4.0 | 5.0 | 0.00 | 0.05 | 0.05 | 77 | 1017.8 |
| 20260902201045 | 68 | 177 | 3.0 | 3.0 | 0.00 | 0.05 | 0.05 | 76 | 1018.0 |
| 20260902200540 | 67 | 268 | 1.0 | 2.0 | 0.00 | 0.05 | 0.05 | 77 | 1017.9 |
| 20260902200037 | 67 | 283 | 2.0 | 2.0 | 0.00 | 0.05 | 0.05 | 80 | 1017.8 |
| 20260902195532 | 67 | 314 | 2.0 | 2.0 | 0.00 | 0.05 | 0.05 | 81 | 1017.8 |
| 20260902195030 | 67 | 277 | 0.0 | 1.0 | 0.00 | 0.05 | 0.05 | 78 | 1018.0 |
| 20260902194524 | 68 | 321 | 1.0 | 1.0 | 0.00 | 0.05 | 0.05 | 77 | 1018.0 |
| 20260902194020 | 67 | 230 | 2.0 | 3.0 | 0.00 | 0.05 | 0.05 | 77 | 1017.9 |
| 20260902193515 | 67 | 343 | 0.0 | 1.0 | 0.00 | 0.05 | 0.05 | 81 | 1017.9 |
| 20260902193015 | 66 | 318 | 2.0 | 3.0 | 0.00 | 0.05 | 0.05 | 81 | 1018.1 |
| 20260902192508 | 66 | 240 | 1.0 | 2.0 | 0.00 | 0.05 | 0.05 | 82 | 1017.9 |
| 20260902192007 | 66 | 296 | 1.0 | 1.0 | 0.00 | 0.05 | 0.05 | 82 | 1017.9 |
| 20260902191502 | 65 | 298 | 2.0 | 2.0 | 0.00 | 0.05 | 0.05 | 83 | 1018.0 |
| 20260902190956 | 65 | 283 | 2.0 | 3.0 | 0.00 | 0.05 | 0.05 | 83 | 1018.0 |
| 20260902190405 | 64 | 286 | 1.0 | 1.0 | 0.00 | 0.05 | 0.05 | 86 | 1018.1 |
| 20260902185901 | 64 | 286 | 1.0 | 1.0 | 0.00 | 0.05 | 0.05 | 86 | 1018.1 |
| 20260902185356 | 66 | 234 | 3.0 | 3.0 | 0.00 | 0.05 | 0.05 | 81 | 1018.1 |
| 20260902184851 | 66 | 234 | 3.0 | 3.0 | 0.00 | 0.05 | 0.05 | 81 | 1018.1 |
| 20260902184346 | 66 | 234 | 3.0 | 3.0 | 0.00 | 0.05 | 0.05 | 81 | 1018.1 |
| 20260902183344 | 65 | 240 | 2.0 | 2.0 | 0.00 | 0.05 | 0.05 | 86 | 1018.0 |
| 20260902182840 | 65 | 240 | 2.0 | 2.0 | 0.00 | 0.05 | 0.05 | 86 | 1018.0 |
| 20260902182336 | 64 | 196 | 1.0 | 2.0 | 0.00 | 0.05 | 0.05 | 86 | 1018.0 |
| 20260902181832 | 64 | 242 | 2.0 | 2.0 | 0.00 | 0.05 | 0.05 | 87 | 1017.9 |
| 20260902181328 | 64 | 254 | 2.0 | 2.0 | 0.00 | 0.05 | 0.05 | 88 | 1017.9 |
| 20260902180821 | 64 | 287 | 3.0 | 3.0 | 0.00 | 0.05 | 0.05 | 90 | 1017.8 |
| 20260902180317 | 64 | 236 | 3.0 | 3.0 | 0.00 | 0.05 | 0.05 | 88 | 1017.8 |
| 20260902175813 | 65 | 146 | 2.0 | 3.0 | 0.00 | 0.05 | 0.05 | 90 | 1017.6 |
| 20260902175308 | 64 | 129 | 1.0 | 2.0 | 0.00 | 0.05 | 0.05 | 91 | 1017.7 |
| 20260902174803 | 61 | 286 | 2.0 | 3.0 | 0.00 | 0.05 | 0.05 | 98 | 1017.6 |
| 20260902174300 | 61 | 286 | 2.0 | 3.0 | 0.00 | 0.05 | 0.05 | 98 | 1017.6 |
| 20260902173756 | 61 | 276 | 1.0 | 1.0 | 0.00 | 0.05 | 0.05 | 99 | 1017.4 |
| 20260902173255 | 61 | 276 | 1.0 | 1.0 | 0.00 | 0.05 | 0.05 | 99 | 1017.4 |
| 20260902172750 | 61 | 283 | 0.0 | 1.0 | 0.00 | 0.05 | 0.05 | 99 | 1017.5 |
| 20260902172249 | 61 | 291 | 1.0 | 2.0 | 0.00 | 0.05 | 0.05 | 99 | 1017.4 |
| 20260902171744 | 60 | 284 | 1.0 | 1.0 | 0.00 | 0.05 | 0.05 | 99 | 1017.4 |
| 20260902171240 | 60 | 118 | 1.0 | 2.0 | 0.00 | 0.05 | 0.05 | 99 | 1017.5 |
| 20260902170736 | 60 | 273 | 1.0 | 1.0 | 0.00 | 0.05 | 0.05 | 99 | 1017.3 |
| 20260902170231 | 60 | 297 | 0.0 | 0.0 | 0.00 | 0.05 | 0.05 | 99 | 1017.5 |
| 20260902165726 | 60 | 267 | 2.0 | 2.0 | 0.00 | 0.05 | 0.05 | 99 | 1017.2 |
| 20260902165221 | 59 | 273 | 0.0 | 0.0 | 0.00 | 0.05 | 0.05 | 99 | 1017.1 |
| 20260902164720 | 60 | 321 | 0.0 | 0.0 | 0.00 | 0.05 | 0.05 | 99 | 1017.0 |
| 20260902164215 | 60 | 321 | 0.0 | 0.0 | 0.00 | 0.05 | 0.05 | 99 | 1017.0 |
| 20260902163709 | 60 | 211 | 1.0 | 1.0 | 0.00 | 0.05 | 0.05 | 99 | 1017.0 |
| 20260902163204 | 61 | 274 | 0.0 | 0.0 | 0.00 | 0.05 | 0.05 | 99 | 1017.1 |
| 20260902162702 | 60 | 283 | 0.0 | 1.0 | 0.00 | 0.05 | 0.05 | 99 | 1016.9 |
| 20260902162157 | 59 | 271 | 1.0 | 1.0 | 0.00 | 0.05 | 0.05 | 99 | 1016.8 |
| 20260902161652 | 59 | 288 | 1.0 | 2.0 | 0.00 | 0.05 | 0.05 | 99 | 1016.8 |
| 20260902161147 | 60 | 274 | 0.0 | 0.0 | 0.00 | 0.05 | 0.05 | 99 | 1017.0 |
| 20260902160645 | 60 | 316 | 0.0 | 0.0 | 0.00 | 0.05 | 0.05 | 99 | 1016.8 |
| 20260902160139 | 59 | 332 | 0.0 | 0.0 | 0.00 | 0.05 | 0.05 | 99 | 1016.9 |
| 20260902155637 | 59 | 274 | 1.0 | 1.0 | 0.00 | 0.05 | 0.05 | 99 | 1016.8 |
| 20260902155136 | 59 | 301 | 0.0 | 1.0 | 0.00 | 0.05 | 0.05 | 99 | 1016.7 |
| 20260902154631 | 59 | 236 | 0.0 | 1.0 | 0.00 | 0.05 | 0.05 | 99 | 1016.9 |
| 20260902154126 | 59 | 242 | 1.0 | 1.0 | 0.00 | 0.05 | 0.05 | 99 | 1016.8 |
| 20260902153625 | 59 | 306 | 0.0 | 0.0 | 0.00 | 0.05 | 0.05 | 99 | 1016.7 |
| 20260902153120 | 59 | 286 | 1.0 | 1.0 | 0.00 | 0.05 | 0.05 | 99 | 1016.8 |
| 20260902152617 | 59 | 317 | 0.0 | 0.0 | 0.00 | 0.05 | 0.05 | 99 | 1016.7 |
| 20260902152112 | 59 | 289 | 0.0 | 0.0 | 0.00 | 0.05 | 0.05 | 99 | 1016.8 |
| 20260902151607 | 59 | 232 | 2.0 | 2.0 | 0.00 | 0.05 | 0.05 | 99 | 1016.7 |
| 20260902151107 | 58 | 238 | 2.0 | 2.0 | 0.00 | 0.05 | 0.05 | 99 | 1016.6 |
| 20260902150601 | 58 | 238 | 2.0 | 2.0 | 0.00 | 0.05 | 0.05 | 99 | 1016.6 |
| 20260902150057 | 59 | 278 | 0.0 | 1.0 | 0.00 | 0.05 | 0.05 | 99 | 1016.5 |
| 20260902145551 | 58 | 297 | 1.0 | 1.0 | 0.00 | 0.05 | 0.05 | 99 | 1016.4 |
| 20260902145051 | 58 | 307 | 0.0 | 0.0 | 0.00 | 0.05 | 0.05 | 99 | 1016.6 |
| 20260902144304 | 58 | 275 | 0.0 | 0.0 | 0.00 | 0.05 | 0.05 | 99 | 1016.4 |
| 20260902143758 | 58 | 275 | 0.0 | 0.0 | 0.00 | 0.05 | 0.05 | 99 | 1016.4 |
| 20260902143253 | 58 | 332 | 0.0 | 0.0 | 0.00 | 0.05 | 0.05 | 99 | 1016.3 |
| 20260902142749 | 58 | 320 | 0.0 | 0.0 | 0.00 | 0.05 | 0.05 | 99 | 1016.3 |
| 20260902142244 | 58 | 289 | 0.0 | 0.0 | 0.00 | 0.05 | 0.05 | 99 | 1016.2 |
| 20260902141518 | 58 | 303 | 0.0 | 0.0 | 0.00 | 0.05 | 0.05 | 99 | 1016.1 |
| 20260902141014 | 58 | 303 | 0.0 | 0.0 | 0.00 | 0.05 | 0.05 | 99 | 1016.1 |
| 20260902140508 | 58 | 303 | 0.0 | 0.0 | 0.00 | 0.05 | 0.05 | 99 | 1016.1 |
| 20260902140003 | 58 | 341 | 0.0 | 0.0 | 0.00 | 0.05 | 0.05 | 99 | 1016.0 |
| 20260902135458 | 58 | 352 | 0.0 | 0.0 | 0.00 | 0.05 | 0.05 | 99 | 1015.9 |
| 20260902134957 | 58 | 352 | 0.0 | 0.0 | 0.00 | 0.05 | 0.05 | 99 | 1015.9 |
| 20260902134453 | 58 | 298 | 0.0 | 0.0 | 0.00 | 0.05 | 0.05 | 99 | 1015.9 |
| 20260902133948 | 58 | 331 | 0.0 | 1.0 | 0.00 | 0.05 | 0.05 | 99 | 1015.8 |
| 20260902133443 | 58 | 356 | 0.0 | 0.0 | 0.00 | 0.05 | 0.05 | 99 | 1016.0 |
| 20260902132938 | 58 | 356 | 0.0 | 0.0 | 0.00 | 0.05 | 0.05 | 99 | 1016.0 |
| 20260902132433 | 58 | 353 | 0.0 | 0.0 | 0.00 | 0.05 | 0.05 | 99 | 1015.9 |
| 20260902131927 | 58 | 353 | 0.0 | 0.0 | 0.00 | 0.05 | 0.05 | 99 | 1015.9 |
| 20260902131424 | 58 | 354 | 0.0 | 0.0 | 0.00 | 0.05 | 0.05 | 99 | 1015.7 |
| 20260902130923 | 58 | 354 | 0.0 | 0.0 | 0.00 | 0.05 | 0.05 | 99 | 1015.7 |
| 20260902130420 | 58 | 353 | 0.0 | 0.0 | 0.00 | 0.05 | 0.05 | 99 | 1015.7 |
| 20260902125914 | 57 | 354 | 0.0 | 0.0 | 0.00 | 0.05 | 0.05 | 99 | 1015.4 |
| 20260902125410 | 57 | 354 | 0.0 | 0.0 | 0.00 | 0.05 | 0.05 | 99 | 1015.7 |
| 20260902124906 | 57 | 1 | 0.0 | 0.0 | 0.00 | 0.05 | 0.05 | 99 | 1015.7 |
| 20260902124402 | 58 | 338 | 0.0 | 0.0 | 0.00 | 0.05 | 0.05 | 99 | 1015.7 |
| 20260902123856 | 58 | 13 | 0.0 | 0.0 | 0.00 | 0.05 | 0.05 | 99 | 1015.5 |
| 20260902123353 | 58 | 350 | 0.0 | 0.0 | 0.00 | 0.05 | 0.05 | 99 | 1015.4 |
| 20260902122851 | 58 | 350 | 0.0 | 0.0 | 0.00 | 0.05 | 0.05 | 99 | 1015.8 |
| 20260902122347 | 58 | 350 | 0.0 | 0.0 | 0.00 | 0.05 | 0.05 | 99 | 1015.5 |